Location: Huntsville
(34.7300°N, 86.5860°W)
Time: 01:17:28
(UTC-05:00)

Daily predictions for brighter satellites

Satellite Brightness Start Highest point End
(mag) Time Altitude Azimuth Time Altitude Azimuth Time Altitude Azimuth
Lacrosse 5 4.1 00:14:34 19° NE 00:14:34 19° NE 00:16:02 10° NE
Cosmos 2369 Rocket 3.5 00:28:04 36° NNE 00:28:04 36° NNE 00:31:18 10° NNE
NOSS 3-1 (C) 4.1 00:22:53 10° NNW 00:30:26 72° NE 00:30:26 72° NE
CZ-2C R/B 4.1 00:45:24 10° NNE 00:48:08 32° NNE 00:48:08 32° NNE
Cosmos 1943 Rocket 3.4 01:15:17 37° NNE 01:15:17 37° NNE 01:18:34 10° NNE
SeaSat 1 4.1 01:30:22 31° NNE 01:30:22 31° NNE 01:33:28 10° N
Lacrosse 5 4.3 01:53:42 15° NW 01:54:37 15° NNW 01:57:38 10° N
ATLAS 2AS CENTAUR R/B 2.8 02:03:18 10° NNW 02:11:23 87° WSW 02:11:23 87° WSW
CZ-3B DEB 4.2 01:46:48 10° NW 02:16:24 67° WSW 02:19:53 53° S
Cosmos 2219 3.9 02:13:59 10° NNW 02:17:55 47° NNW 02:17:55 47° NNW
CZ-2D R/B 4.3 02:17:55 10° ENE 02:21:01 15° E 02:22:05 15° ESE
Cosmos 2233 Rocket 4.1 02:23:43 70° NNW 02:23:43 70° NNW 02:29:07 10° N
Cosmos 2227 Rocket 4.1 02:21:55 10° N 02:26:38 26° ENE 02:30:44 12° ESE
Cosmos 2278 4.0 02:38:18 60° E 02:38:18 60° E 02:43:23 10° NNE
Cosmos 2369 4.2 02:38:38 53° E 02:38:38 53° E 02:43:45 10° NNE
Cosmos 2297 Rocket 4.0 02:43:44 10° N 02:48:34 28° ENE 02:53:20 10° ESE
Cosmos 405 Rocket 4.5 02:47:26 10° NNE 02:50:35 31° ENE 02:50:35 31° ENE
Cosmos 1072 Rocket 4.4 02:52:55 75° SSE 02:53:30 85° E 02:59:57 10° N
Cosmos 468 Rocket 4.4 02:54:33 55° E 02:54:33 55° E 02:59:26 10° NNE
SL-08 R/B 4.1 02:57:30 44° NNW 02:57:30 44° NNW 03:00:43 10° NNW
NPP 4.1 02:57:53 10° N 03:02:39 49° NW 03:02:39 49° NW
IRAS Rocket 4.3 02:57:55 10° N 03:03:28 66° WNW 03:03:28 66° WNW
Cosmos 1891 Rocket 4.5 03:02:57 60° SSE 03:03:57 71° E 03:10:00 10° N
NOSS 2-1 (D) 4.4 03:05:09 45° NE 03:05:09 45° NE 03:08:09 10° NNE
NOSS 2-1 (C) 4.3 03:06:27 46° NE 03:06:27 46° NE 03:09:29 10° NNE
ATLAS CENTAUR R/B 2.2 03:09:11 56° ESE 03:09:11 56° ESE 03:14:02 10° NE
Resurs 1-4 Rocket 2.8 03:06:07 10° NNE 03:11:11 47° E 03:12:18 41° SE
SL-16 R/B 3.2 03:07:20 19° SE 03:11:39 52° ENE 03:17:37 10° N
USA 161 4.4 03:15:50 17° N 03:15:50 17° N 03:16:36 10° N
CZ-3 R/B 4.5 03:01:27 33° SSW 03:14:49 45° SSE 03:26:08 10° E
Cosmos 2034 Rocket 3.9 03:14:41 58° S 03:16:03 87° E 03:22:17 10° N
Cosmos 1898 Rocket 4.0 03:11:04 10° N 03:16:22 59° ENE 03:18:52 30° SE
Cosmos 44 3.8 03:13:16 10° NNW 03:17:03 47° NW 03:17:03 47° NW
NOSS 2-1 (E) 3.8 03:21:03 59° N 03:21:03 59° N 03:24:39 10° NNE
Okean O Rocket 4.0 03:17:26 10° NE 03:20:24 18° E 03:22:44 12° SE
ADEOS 3.7 03:18:18 10° N 03:23:24 58° WNW 03:23:34 57° W
ERS-2 3.8 03:23:54 10° N 03:26:03 27° NNW 03:26:03 27° NNW
Cosmos 841 Rocket 4.3 03:26:34 35° SSE 03:28:12 46° ESE 03:33:14 10° NNE
Milstar 3 Cent rocket 2.8 03:28:17 42° SSE 03:28:21 42° SSE 03:35:26 10° E
Cosmos 1707 3.2 03:27:22 10° N 03:30:34 57° NNW 03:30:34 57° NNW
Cosmos 220 Rocket 3.9 03:27:10 10° NNW 03:31:31 81° ENE 03:31:42 78° ESE
Cosmos 1937 Rocket 4.0 03:27:25 10° N 03:32:32 58° ENE 03:36:55 14° SSE
Nadezhda 4 Rocket 4.2 03:29:57 10° N 03:36:08 70° E 03:40:34 20° SSE
Cosmos 1763 Rocket 3.7 03:35:23 44° SSE 03:36:54 65° ESE 03:42:04 10° NNE
SME Rocket 3.8 03:34:56 39° SSE 03:37:00 86° WSW 03:44:22 10° NNW
UNK 3.8 03:36:37 42° SSE 03:38:11 77° ENE 03:42:52 10° N
ARIANE 5 R/B 2.5 03:34:23 10° N 03:39:28 66° WNW 03:40:22 55° SW
GPS 2-04 Rocket1 2.8 03:40:11 66° ESE 03:40:11 66° ESE 03:43:32 10° E
Cosmos 1656 3.6 03:42:41 50° SW 03:44:11 74° WNW 03:49:53 10° NNE
OAO 1 4.4 03:44:22 43° W 03:46:15 88° N 03:51:44 10° E
BREEZE-M DEB (TANK) 3.3 03:41:27 10° NW 03:45:42 36° WNW 03:45:42 36° WNW
Delta 7925 Rocket 4.5 03:49:46 29° S 03:49:46 29° S 03:53:12 10° SE
Cosmos 1408 Rocket 4.1 03:45:30 10° N 03:49:49 57° E 03:52:38 21° SSE
Cosmos 1766 Rocket 4.3 03:46:09 10° N 03:50:28 52° E 03:53:43 17° SSE
Cosmos-2242 3.8 03:49:20 27° SSE 03:51:23 48° E 03:55:33 10° NNE
Meteor 2-5 Rocket 4.1 03:46:13 10° NNW 03:51:49 47° W 03:53:09 40° SW
ASTRO E2 3.0 03:52:59 49° SSE 03:52:59 49° SSE 03:56:28 10° ESE
NOSS 7 (D) 4.4 03:54:13 71° NW 03:54:13 71° NW 03:57:31 10° NNE
Cosmos 1697 Rocket 2.6 03:55:03 40° SSW 03:57:11 78° WNW 04:02:52 10° NNE
Cosmos 2082 3.8 03:52:38 10° NNW 03:58:06 52° WSW 04:00:19 33° SSW
CZ-2D R/B 2.3 03:56:04 10° N 04:01:24 57° WNW 04:03:24 36° SW
IRS-1D 4.0 03:56:46 10° N 04:01:26 42° WNW 04:02:36 36° WSW
Cosmos 2298 Rocket 4.4 03:57:38 10° NNW 04:02:36 42° WSW 04:03:37 38° SW
SL-8 R/B 4.5 04:05:20 32° S 04:05:20 32° S 04:08:24 10° SSE
Cosmos 1980 Rocket 2.3 04:01:10 27° S 04:04:14 71° ESE 04:09:52 10° NNE
Cosmos 1634 Rocket 4.1 04:00:38 19° S 04:05:12 80° E 04:11:30 10° N
Cosmos 2227 Rocket 2.7 04:05:32 10° NW 04:10:43 37° WSW 04:12:25 30° SW
PSLV R/B 3.9 04:07:38 10° NNE 04:11:30 69° E 04:13:21 28° S
Cosmos 540 Rocket 4.4 04:08:44 13° S 04:13:03 44° ESE 04:17:56 10° NNE
Cosmos 2322 Rocket 3.8 04:09:25 10° SSE 04:14:14 30° ESE 04:19:03 10° NE
Cosmos 1544 4.1 04:14:46 15° SSE 04:17:33 45° E 04:21:04 10° NNE
MOZ.5/SAFIR/RUBIN 5/SL-8 4.3 04:16:26 10° SSE 04:21:06 63° ENE 04:25:44 10° N
USA 81 4.3 04:15:53 10° S 04:21:06 68° E 04:26:22 10° N
Cosmos 1766 4.2 04:21:31 28° W 04:22:03 29° W 04:25:33 10° NNW
IRS-1C Rocket 4.0 04:16:59 10° N 04:22:15 82° WNW 04:26:05 19° SSW
Cosmos 1092 Rocket 4.0 04:16:56 10° NNW 04:23:09 66° W 04:29:24 10° S
ADEOS II 4.0 04:21:28 10° NE 04:25:54 27° E 04:30:18 10° SSE
GEOS 3 Rocket 4.0 04:24:21 10° S 04:29:14 39° WSW 04:34:04 10° NW
Cosmos 1758 3.5 04:29:52 26° SSW 04:31:52 52° W 04:35:48 10° N
Cosmos 2297 Rocket 2.8 04:27:32 10° NW 04:32:35 35° WSW 04:37:17 12° SSW
UNKNOWN OBJECT B 4.1 04:33:04 10° NNW 04:36:16 24° WNW 04:37:27 21° W
Cosmos 2360 4.2 04:33:15 16° SSW 04:37:50 86° WNW 04:43:34 10° NNE
Cosmos 332 Rocket 4.0 04:33:48 12° S 04:38:10 72° ESE 04:42:58 10° NNE
Cosmos 1953 2.8 04:36:41 24° SW 04:38:40 41° W 04:42:31 10° N
OAO 3 Rocket 4.3 04:38:00 22° SW 04:38:48 22° SSW 04:42:27 10° SSE
CZ-2D R/B 4.4 04:35:43 10° N 04:39:39 35° WNW 04:42:00 20° SW
Cosmos 990 Rocket 4.4 04:36:24 10° NNW 04:41:18 41° WSW 04:46:12 10° S
SL-16 R/B 2.9 04:39:45 10° S 04:45:15 55° ESE 04:50:46 10° NNE
ISS -1.2 04:43:32 10° NNW 04:46:29 30° NE 04:49:25 10° E
ATLAS CENTAUR R/B 3.6 04:45:31 12° W 04:48:33 19° NW 04:52:03 10° N
Resurs 1-4 Rocket 3.7 04:47:05 10° NNW 04:50:37 19° WNW 04:53:23 13° WSW
PAYLOAD B 4.4 04:48:10 10° N 04:53:38 56° WNW 04:59:04 10° SSW
SL-16 R/B 3.7 04:52:26 14° SW 04:55:31 20° W 04:59:58 10° NW
Okean O Rocket 2.5 04:52:52 10° N 04:56:49 33° WNW 05:00:12 13° SW
Cosmos 1805 4.4 04:55:11 16° SW 04:57:25 26° WNW 05:00:46 10° NNW
Cosmos 371 Rocket 3.4 04:54:38 10° S 04:59:26 78° ESE 05:04:15 10° NNE
Cosmos 1500 Rocket 3.5 04:55:17 10° NNW 04:59:40 71° W 05:03:59 10° S
Cosmos 2279 Rocket 4.1 04:56:51 10° SSW 05:03:00 60° W 05:09:12 10° N
Aureole 1 Rocket 3.9 04:57:55 10° SSW 05:03:10 80° WNW 05:10:13 10° NNE
Cosmos 1743 Rocket 4.0 04:59:34 10° NNW 05:03:38 40° W 05:07:41 10° SSW
Cosmos 1125 Rocket 3.5 04:59:22 10° NNW 05:04:31 65° WSW 05:09:38 10° S
Aurora 2 Rocket 3.8 05:04:00 12° SSW 05:05:40 16° S 05:07:53 10° SE
Cosmos 372 Rocket 4.2 05:01:21 10° NNW 05:06:27 73° ENE 05:11:31 10° SSE
CZ-4B R/B 3.7 05:01:45 10° N 05:06:58 43° WNW 05:12:04 10° SW
RESURS DK-1 3.4 05:06:33 10° NNW 05:10:35 50° ENE 05:14:36 10° SE
Cosmos 1733 3.2 05:10:01 10° SSW 05:13:44 59° W 05:17:29 10° N
Cosmos 1655 Rocket 4.3 05:08:13 10° NNW 05:14:21 49° W 05:20:27 10° SSW
Cosmos 2151 3.2 05:10:48 10° N 05:15:08 77° E 05:19:25 10° S
Cosmos 2227 4.3 05:10:28 10° NNW 05:16:10 64° WSW 05:21:50 10° S
GPS 2-04 Rocket1 2.7 05:15:48 10° W 05:19:40 76° N 05:23:20 10° E
Feng Yun 1-1 Rocket 4.3 05:14:50 10° N 05:20:29 77° WNW 05:25:56 10° SSW
